パンスターズ彗星

C/2026 J1 ( PanSTARRS )

English version
Home page
Updated on July 12, 2026

---------------------------------------------------------------------

・ プロフィール

発見日 2026年5月14日
発見光度 20.4等
発見者 Pan-STARRS 1 telescope (Haleakala)

・ 写真集

・ 軌道要素

Epoch 2026 June 9.0 TT = JDT 2461200.5
T 2026 June 30.36035 TT                                 Pike
q   2.5237335            (2000.0)            P               Q
n   0.00765086     Peri.  129.52074     -0.10600084     +0.32047079
a  25.5071899      Node   100.35549     -0.90490202     -0.42351420
e   0.9010580      Incl.   73.11611     +0.41220887     -0.84730998
P 129
From 322 observations 2026 May 14-July 6, mean residual 0".4.

・ 光度変化

        m1 = 12.5 + 5 logΔ + 10.0 log r

---------------------------------------------------------------------

軌道要素はM.P.E.C. 2026-N12に掲載されたものです。
光度グラフはComet for Windowsで作成したものです。

---------------------------------------------------------------------

Copyright(C) Seiichi Yoshida (comet@aerith.net). All rights reserved.